{"data":{"norad_id":66297,"epoch":"2026-05-24T17:58:28.792704Z","epoch_age_seconds":90754,"freshness":"FRESH","line1":"1 66297U 25248E   26144.74894436  .00003462  00000+0  15886-3 0  9998","line2":"2 66297  45.4066 244.2179 0011585 271.1384  88.8176 15.22487919 30988","mean_motion":15.22487919,"eccentricity":0.0011585,"inclination_deg":45.4066,"raan_deg":244.2179,"arg_perigee_deg":271.1384,"mean_anomaly_deg":88.8176,"bstar":0.00015886,"rev_number":3098,"period_min":94.582031294266,"perigee_km":490.37270220171,"apogee_km":506.30549732486,"semimajor_km":6876.4760997633,"source":"CELESTRAK","updated_at":"2026-05-25T13:38:06.126568Z"}}